Theta_e
312 312 312 314 315 315 318 318 318 317 317 308 305 307 308 308 308 310 315 319 316 310 309 310 310 311 312 312 312 313 311 310 311 312 311 309 311 310 311 311 311 312 312 311 317
314 314 314 313 315 316 319 315 312 310 307 306 307 307 309 312 310 313 319 315 310 310 309 310 310 309 310 311 311 308 310 309 310 311 311 311 311 311 311 310 311 311 311 311 313
316 314 314 315 315 316 311 306 306 305 307 307 308 310 308 308 308 313 313 311 310 309 309 310 311 311 312 312 312 311 308 311 312 312 313 312 312 311 311 312 311 311 311 311 312
314 315 313 312 307 307 308 307 306 307 306 306 307 308 309 311 310 313 311 312 311 311 310 311 311 312 311 311 312 312 311 311 312 313 312 312 313 312 312 312 313 312 312 312 311
308 309 310 311 311 310 311 311 310 309 308 309 310 312 312 312 313 311 311 311 309 307 307 309 309 312 311 311 311 312 311 312 311 311 311 311 311 312 312 312 312 313 313 313 312
309 310 310 310 311 311 312 312 312 313 313 313 314 313 313 312 311 310 309 308 306 306 307 307 307 308 311 311 310 310 310 310 310 310 310 310 311 310 312 312 311 311 311 310 311
310 310 311 311 311 311 310 310 309 309 310 310 310 311 309 309 309 307 306 306 306 308 310 311 310 307 308 307 310 310 310 308 309 310 310 310 312 311 311 311 311 312 312 312 312
307 307 307 308 308 309 308 308 308 308 307 307 308 308 307 306 304 305 305 305 306 309 310 310 311 310 311 311 308 308 307 311 308 309 308 310 309 307 308 310 310 310 311 311 311
307 306 306 306 306 306 306 305 306 308 307 307 306 306 306 305 306 306 307 308 309 308 310 310 311 310 309 308 306 305 309 308 308 307 309 308 308 308 308 307 307 307 307 308 308
307 306 307 307 306 306 306 306 306 305 307 305 305 304 306 307 308 307 307 306 307 307 309 309 310 306 303 306 307 307 307 306 307 306 306 306 306 306 306 305 306 306 307 307 307
306 307 307 307 306 305 306 307 307 305 305 306 306 307 307 307 308 308 307 306 306 307 306 306 307 308 305 304 305 306 306 307 306 305 305 306 306 307 306 306 306 306 306 307 307
305 304 305 305 304 304 306 306 308 306 306 307 306 306 307 307 306 307 307 305 306 306 305 303 306 305 305 305 305 305 305 305 304 304 305 307 306 307 304 304 306 306 305 306 306
303 304 305 305 304 304 306 306 306 308 306 305 306 307 306 308 307 307 307 307 306 306 305 305 304 304 305 305 305 304 305 304 305 304 304 306 308 304 304 302 304 305 305 305 306
305 303 305 305 304 304 306 306 305 310 299 302 305 306 307 308 306 308 308 307 304 306 304 303 303 305 305 305 305 305 303 304 304 306 309 306 311 305 304 303 305 305 304 304 306
315 307 304 305 304 304 306 306 307 309 303 302 304 306 307 307 307 306 308 307 305 304 302 302 303 304 305 305 303 305 304 304 304 305 308 305 307 307 302 308 308 306 307 306 305
318 307 305 305 304 305 306 307 310 304 300 304 306 306 306 306 307 307 307 306 306 304 301 302 302 303 303 304 303 304 303 302 303 307 307 304 305 308 307 307 306 306 308 309 308
318 307 305 305 305 306 309 309 304 304 302 305 305 305 305 306 305 305 303 301 301 300 300 299 301 303 304 305 303 302 304 304 305 304 308 302 305 307 305 304 304 306 308 309 310
316 307 306 308 305 306 310 302 303 304 305 305 306 305 306 305 304 301 304 301 300 298 297 299 303 304 303 304 304 303 305 302 302 306 306 302 306 307 304 304 304 307 307 309 310
316 309 310 307 306 308 308 303 304 304 306 306 303 304 303 303 302 301 301 301 300 299 301 298 301 300 301 303 303 304 307 304 305 299 304 303 301 301 302 306 307 307 308 310 310
318 310 310 309 307 309 304 307 305 306 307 305 304 304 304 302 302 301 301 300 301 299 298 299 299 299 300 302 302 304 303 302 302 303 305 303 301 304 303 306 305 306 307 310 310
317 311 310 311 307 308 304 303 305 307 307 305 305 305 304 304 303 302 302 301 300 300 300 299 299 300 300 303 303 303 303 302 300 304 306 303 306 300 302 302 304 303 306 307 308
316 310 310 311 307 303 302 308 308 306 307 306 304 304 304 303 303 302 302 300 301 300 301 299 299 301 301 299 300 302 302 303 304 301 303 302 305 301 300 301 301 304 307 307 304
314 313 311 309 303 302 304 305 307 305 305 305 305 303 303 304 303 302 301 301 300 300 300 300 300 300 305 301 299 301 301 302 298 299 304 304 305 299 298 298 300 300 301 301 302
313 306 312 309 305 305 304 307 305 305 306 305 304 304 304 304 302 304 302 301 300 300 301 302 298 300 305 306 300 301 300 301 302 299 302 304 305 305 303 300 299 299 301 302 302
312 306 306 304 306 305 304 304 305 306 305 305 304 304 303 304 302 301 301 301 301 301 302 300 302 298 299 299 299 300 300 301 301 302 302 302 302 302 301 301 301 301 302 302 304
311 310 308 308 306 304 305 307 305 305 304 305 304 305 304 303 304 306 305 301 302 301 301 298 303 296 301 301 300 300 301 301 300 300 301 301 301 302 301 301 300 302 302 303 305
310 309 309 310 306 307 307 309 308 305 309 306 304 304 305 306 307 306 305 304 303 301 302 300 301 300 305 300 299 304 304 302 301 300 300 301 301 299 300 299 300 303 303 305 305
Wind_Speed
26 26 22 26 25 25 20 24 20 17 15 13 16 17 16 14 11 10 14 11 9 5 5 5 4 5 6 6 5 3 3 2 3 3 3 6 4 3 4 6 5 7 6 6 16
34 35 33 26 25 24 26 25 19 18 18 18 18 17 18 17 11 17 14 10 8 7 5 4 5 5 5 4 3 3 2 4 1 2 3 9 4 9 6 4 6 12 10 8 11
36 27 27 25 27 22 22 22 22 21 20 19 18 17 15 9 7 13 13 10 9 8 7 6 5 4 5 3 3 2 3 2 3 4 5 5 8 4 4 5 13 7 8 10 10
34 31 29 28 29 29 26 23 20 19 17 16 14 9 3 1 4 8 9 9 10 9 5 7 3 3 3 2 3 2 3 3 4 4 5 6 9 9 15 17 22 23 19 18 18
32 30 28 28 26 25 22 20 18 15 12 8 4 2 4 13 9 8 7 7 7 7 7 5 9 3 3 0 3 2 2 7 12 19 19 19 16 15 18 30 32 30 29 30 27
28 26 24 24 23 21 20 18 17 14 11 9 7 6 6 10 10 7 7 6 8 8 10 9 6 4 4 1 0 3 11 16 15 17 12 8 12 6 17 30 27 29 29 25 23
23 22 20 19 18 17 16 14 12 11 10 10 14 13 17 10 8 5 5 6 6 6 7 8 7 2 1 1 3 4 6 5 5 4 4 5 5 8 22 20 21 26 26 25 17
21 20 19 18 16 13 11 9 9 10 8 6 6 3 8 8 6 5 5 4 3 3 3 5 5 3 1 3 4 3 3 4 3 4 6 2 17 16 30 24 18 18 21 14 19
17 18 19 19 15 10 9 12 4 4 6 5 3 4 5 6 4 6 6 5 1 4 3 2 1 2 2 3 4 5 4 6 9 5 3 3 20 15 23 25 25 31 28 32 29
9 10 10 12 14 9 3 2 4 10 2 3 4 5 4 2 3 6 9 7 3 2 2 3 5 3 3 3 2 4 6 6 10 5 4 16 25 23 32 27 23 28 30 31 29
9 6 8 13 15 12 6 4 3 2 16 9 7 6 4 4 2 5 9 6 4 3 4 7 3 4 5 5 3 3 5 15 16 14 8 12 24 27 32 27 23 27 29 32 30
11 10 11 12 13 14 6 5 5 7 9 8 7 6 5 5 2 6 9 5 6 3 2 4 3 2 2 3 5 5 9 12 10 2 7 16 26 22 14 13 23 27 23 29 28
14 13 12 10 8 11 10 8 6 7 4 5 6 4 4 6 3 5 7 4 2 1 1 3 2 4 2 4 5 4 6 5 8 11 5 14 9 6 5 7 8 21 29 27 23
15 12 9 7 5 11 9 7 5 4 5 7 5 4 5 6 2 3 3 2 1 2 1 5 3 1 2 4 3 4 4 5 8 10 6 8 6 7 8 12 4 11 13 23 23
19 15 10 6 4 7 5 3 3 1 5 3 5 5 5 1 5 1 2 1 2 2 4 3 1 1 2 4 4 8 5 9 3 2 4 2 3 9 5 7 9 7 11 9 11
21 14 10 8 9 7 4 2 4 6 2 4 3 5 4 2 2 4 2 2 2 1 1 6 3 2 3 3 4 8 6 3 2 1 1 2 1 6 4 4 7 5 14 7 2
20 13 9 11 9 9 5 2 5 7 2 5 3 4 2 3 4 3 4 5 3 5 6 5 2 2 2 4 2 6 5 4 5 5 3 2 2 11 11 10 4 9 14 9 6
16 10 10 13 12 9 5 4 10 2 3 2 3 3 2 4 1 5 2 5 1 3 2 4 6 1 2 1 2 4 3 3 4 4 6 3 5 6 4 11 20 13 12 7 10
14 7 12 15 14 10 2 7 4 3 2 5 4 2 4 3 1 5 2 1 2 2 3 4 5 2 1 1 3 2 3 1 1 2 3 4 7 10 4 5 7 7 6 7 9
14 4 15 16 13 7 5 3 2 3 1 1 3 2 2 4 5 5 2 2 2 1 1 2 5 1 2 2 4 2 4 2 2 5 5 4 5 5 4 5 6 8 14 13 13
13 3 13 16 7 4 4 2 3 2 2 0 1 3 2 4 1 2 2 2 2 2 2 3 2 4 1 4 6 2 1 3 3 2 2 4 7 5 5 5 7 9 16 16 17
10 3 13 15 4 4 2 1 2 2 2 1 1 2 2 2 3 3 3 4 5 7 3 3 3 4 5 1 2 1 4 4 3 3 2 1 8 3 6 6 9 16 20 21 25
11 5 9 10 3 4 5 3 2 1 2 2 2 4 2 2 3 2 3 2 5 5 5 5 1 5 4 3 2 3 4 3 4 2 7 4 7 2 5 7 16 20 30 28 23
7 3 5 8 8 3 4 3 5 3 2 2 2 2 1 2 3 3 3 1 3 5 4 7 2 7 7 7 1 5 5 6 5 3 4 11 15 25 17 11 20 25 31 31 29
6 2 3 4 4 2 1 1 3 4 1 1 1 4 3 3 3 4 3 4 4 4 5 4 5 6 13 14 13 20 20 14 14 16 8 2 8 17 18 16 23 28 30 29 29
5 3 3 7 5 1 1 3 4 4 2 2 3 2 5 5 7 17 11 3 7 2 5 4 4 1 8 12 12 12 20 16 20 19 24 24 27 24 33 23 19 25 21 27 31
3 5 3 4 2 2 4 5 3 3 7 9 7 3 5 15 25 28 27 23 18 8 9 7 3 2 5 3 8 8 7 7 6 8 7 9 13 5 8 7 13 22 25 24 28
Wind_Direction
74 83 94 102 116 137 113 116 128 126 126 124 122 116 112 108 112 122 54 28 17 42 50 56 57 103 98 82 78 106 77 219 241 196 283 337 341 266 262 249 228 216 233 238 194
85 87 93 103 111 122 107 112 116 121 122 123 123 122 118 114 112 83 47 30 41 42 45 67 78 107 73 71 56 85 135 221 215 253 267 307 293 312 315 293 253 233 224 198 199
84 91 94 93 108 110 104 108 115 119 123 125 125 123 124 119 60 37 47 43 40 45 50 68 81 94 76 62 31 142 198 182 239 259 267 270 288 246 273 282 252 240 223 216 226
81 85 88 93 95 96 94 95 102 111 116 115 116 123 153 242 85 36 40 40 37 27 33 53 49 63 76 63 9 327 272 243 279 280 298 280 286 266 249 250 269 276 274 269 265
78 84 89 92 92 89 88 92 95 99 107 118 125 141 116 87 74 54 50 39 33 35 50 61 55 71 103 92 335 197 278 291 277 282 281 280 257 256 261 271 272 270 272 274 271
76 79 86 89 87 83 83 86 88 87 87 95 96 94 112 81 78 56 46 37 37 37 47 56 59 64 101 94 55 297 282 284 293 278 277 262 271 265 274 279 272 272 266 260 260
73 77 81 79 76 76 76 75 75 76 81 83 82 100 89 80 69 49 26 29 33 42 50 52 45 100 126 153 310 288 310 304 258 244 274 321 277 233 281 287 283 274 267 268 260
59 66 68 65 59 58 61 73 82 76 75 87 95 113 82 78 60 48 29 17 21 27 16 29 31 93 23 313 6 14 67 353 275 266 271 116 285 275 272 270 275 284 275 255 291
58 68 68 58 47 48 66 69 78 87 62 91 97 111 93 90 67 47 35 22 123 7 33 34 64 70 59 51 1 19 280 262 295 237 283 213 291 265 270 276 274 278 278 283 284
60 76 56 31 24 15 351 263 40 30 165 102 87 91 90 87 33 24 11 359 8 303 203 20 32 40 36 70 271 285 288 252 260 283 275 286 273 274 268 260 250 258 268 271 271
11 345 330 343 357 8 17 183 184 139 71 74 63 81 61 22 36 6 1 349 357 55 35 18 19 230 223 201 224 254 255 268 280 288 295 278 286 289 286 268 247 246 253 262 264
357 346 338 342 355 7 24 139 122 133 88 64 62 63 46 12 357 16 2 26 28 15 3 12 249 225 276 251 251 256 280 285 289 302 304 304 299 294 298 273 240 240 246 257 262
353 351 342 343 356 11 42 82 127 133 89 42 37 27 10 1 355 355 358 6 62 341 215 188 276 9 304 303 293 257 246 277 283 328 264 328 287 320 310 322 296 249 251 254 250
7 358 1 356 13 6 34 54 119 137 79 322 3 27 351 342 6 317 317 333 315 266 287 227 279 255 291 266 210 286 206 263 300 341 324 25 294 314 324 327 334 304 269 252 237
5 3 12 27 25 26 13 31 121 151 58 302 317 327 317 318 315 1 287 279 238 260 77 279 348 10 282 233 186 253 308 291 292 242 298 339 297 276 336 336 353 342 335 292 261
5 11 22 31 21 21 36 99 131 46 279 341 298 345 3 350 330 314 313 294 282 269 199 259 297 231 235 280 218 298 307 40 71 330 343 295 46 287 303 306 319 335 356 340 169
7 18 46 23 14 10 19 114 45 87 295 312 322 5 334 305 335 33 8 7 41 14 8 327 256 276 251 316 13 0 359 343 358 8 266 349 274 252 278 279 266 303 311 320 291
9 28 34 15 10 6 357 58 65 244 276 355 325 316 335 357 342 337 10 7 67 80 48 38 334 102 338 88 319 9 35 106 301 330 300 331 237 262 240 292 296 297 283 274 257
13 29 18 8 0 356 5 47 178 206 309 330 316 14 340 12 322 11 27 245 231 198 63 18 278 307 160 308 99 8 41 165 258 234 290 268 283 288 302 330 342 333 306 268 252
10 29 11 2 358 6 66 147 202 225 251 14 346 54 316 307 7 28 325 205 186 196 75 188 303 215 285 126 41 140 150 36 30 347 306 291 282 248 327 340 343 333 314 300 291
0 17 4 356 8 37 99 221 262 248 226 161 242 298 292 309 289 288 262 255 176 150 65 129 129 286 310 190 170 125 140 74 127 171 225 307 276 217 250 301 311 301 316 313 306
2 19 356 353 32 39 81 287 304 274 227 233 171 235 236 313 289 291 265 230 172 154 152 195 160 276 256 358 44 148 184 161 133 241 219 169 272 243 249 268 277 295 314 313 313
351 329 358 9 75 6 325 308 272 258 240 194 235 203 166 256 308 221 286 308 198 168 173 175 223 324 348 48 10 243 206 139 102 70 201 166 259 233 274 292 301 300 314 318 320
352 359 15 58 80 96 13 324 320 304 280 241 293 134 140 262 219 289 280 302 206 229 206 170 194 196 227 245 139 242 213 201 162 166 205 229 276 278 295 301 312 316 319 325 322
12 24 10 330 1 43 255 281 307 320 284 264 279 231 192 298 275 238 242 280 211 231 173 175 237 207 253 267 268 267 267 237 215 221 214 274 236 275 293 300 303 306 318 326 333
8 355 342 292 275 226 194 238 223 276 227 278 212 316 186 233 241 285 285 255 242 168 179 173 262 145 277 251 257 265 255 239 234 237 244 259 276 279 278 288 287 301 320 333 336
346 311 301 270 253 240 227 237 246 189 271 238 237 252 254 255 267 269 268 260 247 184 195 173 216 293 260 339 306 281 245 177 185 200 201 200 225 274 288 278 300 319 322 333 336